Location: S�deilles
(46.7500°N, 6.9329°E)
Time: 17:48:48
(UTC+00:00)

NOSS 3-2 (A) - Pass Details

Date: 08 March 2021
Orbit: 779 x 1428 km, 63.4° (Epoch: 18 April)

Event Time Altitude Azimuth Distance (km) Brightness Sun altitude
Rises 18:14:44 0° 185° (S) 3,295 6.3 -8.8°
Reaches altitude 10° 18:17:16 10° 175° (S) 2,413 5.5 -9.2°
Maximum altitude 18:22:06 32° 114° (ESE) 1,476 4.0 -10.0°
Drops below altitude 10° 18:27:30 10° 54° (NE) 2,715 5.4 -11.0°
Sets 18:30:31 0° 45° (NE) 3,775 6.2 -11.5°
